User: anonymous   Login
Location: Unspecified
(0.0000°N, 0.0000°E)
Time: 03:49:21
(UTC+00:00)
Language:

Cosmos 1510 - Orbit

View from above orbital plane
View from above orbital plane
View from above satellite
View from above satellite

Ground track
Ground track

The orbit data is extracted from the following two-line orbital elements,

1 14521U 83115A   18017.54060691 -.00000009 +00000-0 +59089-4 0  9994
2 14521 073.6182 108.0968 0026949 052.2174 051.6511 12.41156597547797
Epoch (UTC): 17 January 2018 12:58:28
Eccentricity: 0.0026949
inclination: 73.6182°
perigee height: 1480 km
apogee height: 1523 km
right ascension of ascending node: 108.0968°
argument of perigee: 52.2174°
revolutions per day: 12.41156597
mean anomaly at epoch: 51.6511°
orbit number at epoch: 54779

The dashed part of the orbit path shows where the satellite is in the earth's shadow,  

DLR